This is the latest recevied weather packets stored in our database for station/object BMCB-19. If no packets are shown the sender has not sent any weather packets the latest 10 day(s).
| Time | Temp. | Humidity | Pressure | Rain* | Wind** | Luminosity | Snow |
|---|---|---|---|---|---|---|---|
| 1777263659 | 3.89° C | 78% | 1025.3 hPa | 0 mm | - | 4 W/m² | - |
| 1777255220 | 5° C | 74% | 1025.2 hPa | 0 mm | - | 0 W/m² | - |
| 1777253424 | 5.56° C | 74% | 1025.3 hPa | 0 mm | - | 0 W/m² | - |
| 1777246857 | 6.67° C | 68% | 1025.9 hPa | 0 mm | - | 0 W/m² | - |
| 1777245057 | 7.78° C | 65% | 1025.7 hPa | 0 mm | - | 0 W/m² | - |
| 1777240267 | 8.89° C | 63% | 1025.1 hPa | 0 mm | - | 0 W/m² | - |
| 1777237268 | 9.44° C | 63% | 1025.2 hPa | 0 mm | - | 0 W/m² | - |
| 1777235466 | 10° C | 62% | 1025.2 hPa | 0 mm | - | 0 W/m² | - |
| 1777234867 | 10.56° C | 61% | 1025.2 hPa | 0 mm | - | 0 W/m² | - |
| 1777234275 | 11.11° C | 60% | 1025.1 hPa | 0 mm | - | 0 W/m² | - |
| 1777227059 | 13.89° C | 54% | 1024.2 hPa | 0 mm | - | 65 W/m² | - |
| 1777225262 | 15° C | 50% | 1024.1 hPa | 0 mm | - | 94 W/m² | - |
| 1777218659 | 16.11° C | 49% | 1024.3 hPa | 0 mm | - | 526 W/m² | - |
| 1777215058 | 16.67° C | 50% | 1024.5 hPa | 0 mm | - | 747 W/m² | - |
| 1777207858 | 16.11° C | 55% | 1025.2 hPa | 0 mm | - | 101 W/m² | - |
| 1777204860 | 15.56° C | 55% | 1025.5 hPa | 0 mm | - | 104 W/m² | - |
| 1777200659 | 14.44° C | 58% | 1025.7 hPa | 0 mm | - | 100 W/m² | - |
| 1777197059 | 13.33° C | 62% | 1025.9 hPa | 0 mm | - | 906 W/m² | - |
| 1777195860 | 12.78° C | 63% | 1025.9 hPa | 0 mm | - | 885 W/m² | - |
| 1777194059 | 12.22° C | 67% | 1026 hPa | 0 mm | - | 812 W/m² | - |
| 1777188657 | 9.44° C | 73% | 1026.3 hPa | 0 mm | - | 567 W/m² | - |
| 1777186258 | 7.22° C | 77% | 1026.3 hPa | 0 mm | - | 408 W/m² | - |
| 1777185057 | 6.67° C | 78% | 1026.4 hPa | 0 mm | - | 326 W/m² | - |
| 1777180856 | 3.89° C | 79% | 1026.2 hPa | 0 mm | - | 86 W/m² | - |
| 1777178459 | 3.33° C | 79% | 1025.9 hPa | 0 mm | - | 8 W/m² | - |
* Rain latest hour (hover to see other rain measurements)
** Current wind speed in m/s (hover to see current wind gust speed)